Flag for U.S.A. Weather past 2 weeks in Thousand Oaks, California, U.S.A.

Now
80 °F

Sunny.


Feels Like: 81 °F
Forecast: 63 / 90 °F
Wind: 5 mph from North

Location: Camarillo Airport

Current Time: Jul 24, 2014 at 10:56:42 AM

Latest Report: Jul 24, 2014 at 9:55 AM


Visibility: 10 mi

Pressure: 29.88 "Hg

Humidity: 52%

Dew point: 61 °F

Location of Thousand OaksLocation

Historic Weather in Thousand Oaks — Graph

°F

Thousand Oaks temperature yesterday

Maximum temperature yesterday: 83 °F (at 2:55 PM)
Minimum temperature yesterday: 61 °F (at 5:55 AM)
Average temperature yesterday: 73 °F

Past Weeks' High & Low Weather Summary

 TemperatureHumidityPressure
High83 °F (Jul 13, 2:55 PM)85% (Jul 13, 4:55 AM)30.09 "Hg (Jul 13, 4:55 AM)
Low60 °F (Jul 18, 4:55 AM)43% (Jul 23, 11:55 AM)29.86 "Hg (Jul 13, 6:55 PM)
Average70 °F71%29.99 "Hg
* Reported Jul 9 8:55 AM — Jul 24 8:55 AM, Thousand Oaks, Weather by CustomWeather, © 2014

Note: Actual official high and low records may vary slightly from our data, if they occured in-between our weather recording intervals... More about our weather records

Advertising

Thousand Oaks weather history for previous 24 hours

 ConditionsComfort  
Time TempWeatherWind HumidityBarometerVisibility
8:55 AM
Jul 24
75 °FSunny.No wind58%29.88 "Hg10 mi
7:55 AM71 °FSunny.No wind61%29.90 "Hg10 mi
6:55 AM66 °FClear.No wind75%29.89 "Hg10 mi
5:55 AM63 °FClear.No wind81%29.88 "Hg10 mi
4:55 AM64 °FClear.No wind78%29.87 "Hg10 mi
3:55 AM65 °FClear.No wind85%29.87 "Hg9 mi
2:55 AM65 °FClear.No wind85%29.88 "Hg9 mi
1:55 AM66 °FClear.No wind81%29.90 "Hg10 mi
12:55 AM67 °FClear.No wind79%29.90 "Hg10 mi
11:55 PM
Jul 23
68 °FClear.No wind76%29.91 "Hg10 mi
10:55 PM69 °FClear.No wind76%29.90 "Hg10 mi
9:55 PM70 °FClear.No wind71%29.90 "Hg10 mi
8:55 PM71 °FSunny.3 mph71%29.90 "Hg10 mi
7:55 PM73 °FSunny.5 mph66%29.90 "Hg10 mi
6:55 PM76 °FSunny.7 mph58%29.90 "Hg10 mi
5:55 PM78 °FSunny.9 mph54%29.91 "Hg10 mi
4:55 PM80 °FSunny.9 mph51%29.92 "Hg10 mi
3:55 PM82 °FSunny.12 mph48%29.93 "Hg10 mi
2:55 PM83 °FSunny.8 mph44%29.96 "Hg10 mi
1:55 PM82 °FSunny.10 mph46%29.97 "Hg10 mi
12:55 PM81 °FSunny.9 mph45%29.99 "Hg10 mi
11:55 AM82 °FSunny.8 mph43%30.01 "Hg10 mi
10:55 AM79 °FSunny.7 mph52%30.02 "Hg10 mi
Weather by CustomWeather, © 2014

See weather overviewHow to use our weather pages